Regional Weather Roundup
Issued by NWS

Home | Current Version | Previous Version | Text Only | Print | Product List | Glossary On
Versions: 1 2 3 4 5 6 7 8 9 10 11 12 13 14 15 16 17 18 19 20 21 22 23 24 25 26 27 28 29 30 31 32 33 34 35 36 37 38 39 40 41 42 43 44 45 46 47 48 49 50
000
ASUS43 KFSD 152210
RWRSD

WEATHER ROUNDUP FOR SOUTH DAKOTA
NATIONAL WEATHER SERVICE SIOUX FALLS SD
500 PM CDT MON SEP 15 2014

NOTE: "FAIR" INDICATES FEW OR NO CLOUDS BELOW 12,000 FEET WITH NO
SIGNIFICANT WEATHER AND/OR OBSTRUCTIONS TO VISIBILITY.


SDZ001>005-009-010-012>017-152300-
NORTHWEST AND NORTH CENTRAL SOUTH DAKOTA

CITY           SKY/WX    TMP DP  RH WIND       PRES   REMARKS
BUFFALO          N/A     68  39  34 S12G17    30.08F
FAITH            N/A     65  39  38 S13G20    30.17F
MOBRIDGE       SUNNY     66  37  34 S9        30.17F
$$

SDZ012>016-024>037-041>051-057-063-072>074-152300-
SOUTHWEST AND SOUTH CENTRAL SOUTH DAKOTA

CITY           SKY/WX    TMP DP  RH WIND       PRES   REMARKS
RAPID CTY ARPT SUNNY     67  44  43 S20       30.16F
PIERRE         SUNNY     63  33  32 CALM      30.20F
CUSTER         SUNNY     62  38  40 S10       30.23F
ELLSWORTH AFB  SUNNY     67  45  44 S18G25    30.15F
PHILIP         SUNNY     67  37  33 SE9       30.19F
PINE RIDGE     SUNNY     69  43  38 S12       30.19F
WINNER         FAIR      64  35  34 S6        30.24F
$$

SDZ004>011-016>023-039-040-152300-
NORTHEAST SOUTH DAKOTA

CITY           SKY/WX    TMP DP  RH WIND       PRES   REMARKS
ABERDEEN       SUNNY     62  34  35 SE3       30.22F
WATERTOWN      SUNNY     60  33  36 NW8       30.22F
SISSETON         N/A     63  31  30 W5        30.20F
$$

SDZ017-020-022-023-036>040-048>070-152300-
SOUTHEAST SOUTH DAKOTA

CITY           SKY/WX    TMP DP  RH WIND       PRES   REMARKS
SIOUX FALLS    MOSUNNY   63  42  46 NW5       30.23F
HURON          SUNNY     64  33  31 VRB3      30.23F
CHAMBERLAIN    SUNNY     63  32  31 CALM      30.23F
MITCHELL       SUNNY     64  38  38 CALM      30.24F
YANKTON        SUNNY     63  39  42 N7        30.24S
$$

ABBREVIATIONS USED IN REMARKS
   TC - TEMPERATURE IN CELSIUS
  WCI - WIND CHILL INDEX
   HX - HEAT INDEX
  VSB - VISIBILITY



USA.gov is the U.S. government's official web portal to all federal, state and local government web resources and services.